BEIDOU-2 IGSO-4 (C09)

Last updated on Sun Jun 21 2026 00:03:31 GMT+0000 (Coordinated Universal Time)

1 37763U 11038A 26170.97170663 .00000022 00000+0 00000+0 0 9996 2 37763 54.6006 165.6472 0159516 231.4774 314.4028 1.00284537 54679
UTC large
Height (km)
Speed (km/s)
/
Latitude / Longitude
Inclination (degrees)
Orbital Period (minutes)
Azimuth
Elevation
Range (km)
Doppler Factor

Next 0 passes for location: London (51.5072 / 0.1276)

No passes found over London.
BEIDOU-2 IGSO-4 (C09)